Starlink 30571

operational
NORAD ID: 58066 Int'l Des: 2023-158 Owner: SPXS Country: US Constellation: starlink
LEOCIRCULAR

About Starlink 30571

Description loading...

Live Position

Loading 3D Globe...

Upcoming Passes

Altitude History

Altitude vs Time

uPlot chart will show altitude changes over time

Two-Line Element Set

1 58066U 23158R 25350.64319357 -.00002068 00000-0 -13799-3 0 9997
2 58066 43.0024 121.1825 0001472 276.6983 83.3691 15.02544166121047
Epoch: Dec 16, 2025 • Age: 17 hours

Current Status

Altitude 558.6 km
Velocity 7.58 km/s
Sub-Earth Point 6.53°N, 81.99°E
Launch Date Oct 13, 2023
Age 2.1 years
Type internet

Technical Details

Classification Payload
Mass 730.00 kg
Dry Mass 700.00 kg
Total Mass 730.00 kg
Length 0.30 m
Diameter 4.10 m
Span 29.00 m
Shape Box + pan
Manufacturer SPXS
Bus Type Starlink V2M
Phase Status In Orbit
Owner/State SPXS/US

Large Constellations

Loading constellations...